Weather History for EIDW - August, 2014

Change the Weather History Date:

Saturday, August 16, 2014

  Actual Average Record
Temperature  
Mean Temperature 58 °F -  
Max Temperature 63 °F 63 °F 71 °F (1997)
Min Temperature 52 °F 50 °F 44 °F (2003)
Degree Days  
Heating Degree Days 8    
Growing Degree Days 8 (Base 50)    
Moisture  
Dew Point 50 °F    
Average Humidity 77    
Maximum Humidity 94    
Minimum Humidity 57    
Precipitation  
Precipitation 0.00 in 0.09 in - ()
Sea Level Pressure  
Sea Level Pressure 30.07 in    
Wind  
Wind Speed 14 mph ()    
Max Wind Speed 29 mph    
Max Gust Speed -    
Visibility 7.6 miles    
Events Rain    
Averages and records for this station are not official NWS values.
T = Trace of Precipitation, MM = Missing Value Source: Averaged Metar Reports

Daily Weather History Graph

Daily Weather History Graph

Search for Another Location

Airport or City:

Trip Planner

Search our weather history database for the weather conditions in past years. The results will help you decide how hot, cold, wet, or windy it might be!

Date:

Astronomy

Aug. 16, 2014 Rise Set
Actual Time 6:06 AM IST 8:51 PM IST
Civil Twilight 5:26 AM IST 9:30 PM IST
Nautical Twilight 4:35 AM IST 10:21 PM IST
Astronomical Twilight 3:30 AM IST 11:25 PM IST
Moon 11:21 PM IST (8/16) 1:39 PM IST (8/16)
Length of Visible Light 16h 04m
Length of Day
14h 45m
Waning Gibbous, 61% of the Moon is Illuminated
Aug 16
Waning Gibbous
Aug 17
Last Quarter
Aug 25
New
Sep 2
First Quarter
Sep 9
Full

Hourly Weather History & Observations

Time (IST) Temp. Dew Point Humidity Pressure Visibility Wind Dir Wind Speed Gust Speed Precip Events Conditions
12:00 AM 54 °F 47 °F 72% 30.21 in 31 mi West 8.9 mph - -   Mostly Cloudy
12:00 AM 53.6 °F 48.2 °F 82% 30.18 in 6.2 mi West 8.1 mph - N/A   Mostly Cloudy
12:30 AM 53.6 °F 48.2 °F 82% 30.18 in 6.2 mi West 8.1 mph - N/A   Mostly Cloudy
1:00 AM 54 °F 46 °F 68% 30.19 in 31 mi West 6.7 mph - -   Mostly Cloudy
1:00 AM 53.6 °F 46.4 °F 77% 30.18 in 6.2 mi West 6.9 mph - N/A   Mostly Cloudy
1:30 AM 53.6 °F 46.4 °F 77% 30.18 in 6.2 mi West 8.1 mph - N/A   Mostly Cloudy
2:00 AM 54 °F 48 °F 74% 30.19 in 25 mi West 11.2 mph - -   Mostly Cloudy
2:00 AM 53.6 °F 48.2 °F 82% 30.18 in 6.2 mi West 10.4 mph - N/A   Mostly Cloudy
2:30 AM 53.6 °F 48.2 °F 82% 30.18 in 6.2 mi West 10.4 mph - N/A   Mostly Cloudy
3:00 AM 54 °F 49 °F 76% 30.17 in 25 mi WSW 8.9 mph - -   Mostly Cloudy
3:00 AM 55.4 °F 48.2 °F 77% 30.15 in 6.2 mi WSW 9.2 mph - N/A   Mostly Cloudy
3:30 AM 53.6 °F 48.2 °F 82% 30.15 in 6.2 mi WSW 9.2 mph - N/A   Mostly Cloudy
4:00 AM 54 °F 49 °F 78% 30.17 in 25 mi WSW 8.9 mph - -   Mostly Cloudy
4:00 AM 53.6 °F 50.0 °F 88% 30.15 in 6.2 mi WSW 9.2 mph - N/A   Mostly Cloudy
4:30 AM 53.6 °F 50.0 °F 88% 30.15 in 6.2 mi WSW 10.4 mph - N/A   Mostly Cloudy
5:00 AM 54 °F 50 °F 82% 30.16 in 25 mi WSW 11.2 mph - -   Mostly Cloudy
5:00 AM 53.6 °F 50.0 °F 88% 30.15 in 6.2 mi WSW 9.2 mph - N/A   Mostly Cloudy
5:30 AM 53.6 °F 50.0 °F 88% 30.15 in 6.2 mi West 10.4 mph - N/A   Mostly Cloudy
6:00 AM 54 °F 50 °F 80% 30.16 in 25 mi West 11.2 mph - -   Mostly Cloudy
6:00 AM 53.6 °F 50.0 °F 88% 30.15 in 6.2 mi West 10.4 mph - N/A   Mostly Cloudy
6:30 AM 53.6 °F 50.0 °F 88% 30.12 in 6.2 mi WSW 11.5 mph - N/A   Mostly Cloudy
7:00 AM 55 °F 49 °F 74% 30.14 in 37 mi West 13.4 mph - -   Mostly Cloudy
7:00 AM 55.4 °F 48.2 °F 77% 30.12 in 6.2 mi West 12.7 mph - N/A   Mostly Cloudy
7:30 AM 55.4 °F 48.2 °F 77% 30.12 in 6.2 mi WSW 12.7 mph - N/A   Mostly Cloudy
8:00 AM 55 °F 50 °F 77% 30.13 in 37 mi WSW 15.7 mph - -   Mostly Cloudy
8:00 AM 55.4 °F 50.0 °F 82% 30.12 in 6.2 mi WSW 13.8 mph - N/A   Mostly Cloudy
8:30 AM 55.4 °F 50.0 °F 82% 30.12 in 6.2 mi WSW 15.0 mph - N/A   Mostly Cloudy
9:00 AM 56 °F 50 °F 74% 30.13 in 37 mi WSW 17.9 mph - -   Mostly Cloudy
9:00 AM 55.4 °F 50.0 °F 82% 30.12 in 6.2 mi WSW 17.3 mph - N/A   Mostly Cloudy
9:30 AM 57.2 °F 51.8 °F 82% 30.09 in 6.2 mi WSW 20.7 mph - N/A   Mostly Cloudy
10:00 AM 57 °F 51 °F 74% 30.12 in 31 mi West 20.1 mph - -   Mostly Cloudy
10:00 AM 57.2 °F 51.8 °F 82% 30.09 in 6.2 mi West 20.7 mph - N/A   Mostly Cloudy
10:30 AM 57.2 °F 50.0 °F 77% 30.09 in 6.2 mi West 20.7 mph - N/A Rain Light Rain Showers
11:00 AM 57 °F 50 °F 71% 30.12 in 19 mi West 20.1 mph - - Rain Light Rain Showers
11:00 AM 57.2 °F 51.8 °F 82% 30.09 in 6.2 mi West 18.4 mph - N/A Rain Light Rain Showers
11:30 AM 57.2 °F 51.8 °F 82% 30.09 in 6.2 mi West 16.1 mph - N/A   Mostly Cloudy
12:00 PM 60 °F 50 °F 61% 30.09 in 31 mi West 17.9 mph - - Rain Light Rain Showers
12:00 PM 59.0 °F 51.8 °F 77% 30.09 in 6.2 mi West 18.4 mph - N/A   Mostly Cloudy
12:30 PM 59.0 °F 50.0 °F 72% 30.06 in 6.2 mi West 20.7 mph - N/A   Mostly Cloudy
1:00 PM 60 °F 51 °F 63% 30.07 in 25 mi West 24.6 mph - -   Partly Cloudy
1:00 PM 59.0 °F 51.8 °F 77% 30.06 in 6.2 mi West 23.0 mph - N/A   Mostly Cloudy
1:30 PM 60.8 °F 51.8 °F 72% 30.06 in 6.2 mi West 24.2 mph - N/A   Mostly Cloudy
2:00 PM 61 °F 51 °F 60% 30.06 in 28 mi West 20.1 mph - -   Mostly Cloudy
2:00 PM 60.8 °F 50.0 °F 68% 30.06 in 6.2 mi West 20.7 mph - N/A   Mostly Cloudy
2:30 PM 60.8 °F 50.0 °F 68% 30.04 in 6.2 mi West 23.0 mph - N/A   Mostly Cloudy
3:00 PM 60 °F 50 °F 62% 30.05 in 25 mi West 24.6 mph - -   Mostly Cloudy
3:00 PM 60.8 °F 50.0 °F 68% 30.04 in 6.2 mi West 25.3 mph - N/A   Mostly Cloudy
3:30 PM 60.8 °F 50.0 °F 68% 30.04 in 6.2 mi West 26.5 mph - N/A   Mostly Cloudy
4:00 PM 61 °F 50 °F 57% 30.04 in 25 mi West 26.8 mph - -   Mostly Cloudy
4:00 PM 60.8 °F 50.0 °F 68% 30.04 in 6.2 mi West 27.6 mph - N/A   Mostly Cloudy
4:30 PM 60.8 °F 50.0 °F 68% 30.01 in 6.2 mi West 27.6 mph - N/A   Mostly Cloudy
5:00 PM 60 °F 50 °F 62% 30.03 in 25 mi West 29.1 mph - -   Mostly Cloudy
5:00 PM 60.8 °F 50.0 °F 68% 30.01 in 6.2 mi West 28.8 mph - N/A   Mostly Cloudy
5:30 PM 60.8 °F 51.8 °F 72% 30.01 in 6.2 mi West 21.9 mph - N/A Rain Light Rain
6:00 PM 60 °F 51 °F 65% 30.00 in 25 mi West 22.4 mph - - Rain Light Rain Showers
6:30 PM 59.0 °F 51.8 °F 77% 29.98 in 6.2 mi West 23.0 mph - N/A   Mostly Cloudy
7:00 PM 59 °F 51 °F 69% 29.98 in 19 mi West 24.6 mph - -   Partly Cloudy
7:00 PM 59.0 °F 51.8 °F 77% 29.98 in 6.2 mi West 24.2 mph - N/A   Mostly Cloudy
7:30 PM 59.0 °F 51.8 °F 77% 29.95 in 6.2 mi West 26.5 mph - N/A   Mostly Cloudy
8:00 PM 59 °F 52 °F 70% 29.96 in 19 mi West 24.6 mph - - Rain Light Rain Showers
8:00 PM 59.0 °F 51.8 °F 77% 29.95 in 6.2 mi West 24.2 mph - N/A   Mostly Cloudy
8:30 PM 57.2 °F 51.8 °F 82% 29.95 in 6.2 mi WSW 24.2 mph - N/A   Mostly Cloudy
9:00 PM 58 °F 52 °F 75% 29.96 in 19 mi WSW 22.4 mph - -   Mostly Cloudy
9:00 PM 57.2 °F 51.8 °F 82% 29.95 in 6.2 mi WSW 20.7 mph - N/A   Mostly Cloudy
9:30 PM 57.2 °F 51.8 °F 82% 29.95 in 6.2 mi WSW 20.7 mph - N/A   Mostly Cloudy
10:00 PM 57 °F 53 °F 81% 29.95 in 19 mi WSW 20.1 mph - -   Partly Cloudy
10:00 PM 57.2 °F 53.6 °F 88% 29.95 in 6.2 mi WSW 18.4 mph - N/A   Mostly Cloudy
10:30 PM 57.2 °F 53.6 °F 88% 29.92 in 6.2 mi WSW 19.6 mph - N/A   Mostly Cloudy
11:00 PM 57 °F 53 °F 81% 29.93 in 19 mi West 20.1 mph - -   Overcast
11:00 PM 57.2 °F 53.6 °F 88% 29.92 in 6.2 mi West 19.6 mph - N/A   Mostly Cloudy
11:30 PM 55.4 °F 53.6 °F 94% 29.92 in 3.7 mi West 21.9 mph - N/A Rain Light Rain